PD0SBH-13 Weather Reports


Display with metric or nautical units.
time (UTC)temp
F
wind
direction
speed
MPH
gust
MPH
rain 1hr
in
rain 24hr
in
rain mn
in
humidity
%
barometer
mb
20260502213519 66 0.0 0.0 0.00 0.00 0.00 99 1011.2
20260502212524 66 0.0 0.0 0.00 0.00 0.00 99 1010.9
20260502211520 66 0.0 0.0 0.00 0.00 0.00 99 1009.9
20260502210525 66 0.0 0.0 0.00 0.00 0.00 99 1009.8
20260502205519 67 0.0 0.0 0.00 0.00 0.00 99 1009.5
20260502204524 0 0.0 0.0 0.00 0.00 0.00
20260502203519 0 0.0 0.0 0.00 0.00 0.00
20260502202525 0 0.0 0.0 0.00 0.00 0.00
20260502201521 0 0.0 0.0 0.00 0.00 0.00
20260502200516 0 0.0 0.0 0.00 0.00 0.00
20260502195521 0 0.0 0.0 0.00 0.00 0.00
20260502194517 0 0.0 0.0 0.00 0.00 0.00
20260502193522 72 0.0 0.0 0.00 0.00 0.00 48 1010.1
20260502192518 72 0.0 0.0 0.00 0.00 0.00 48 1010.2
20260502191522 73 0.0 0.0 0.00 0.00 0.00 49 1010.6
20260502190518 74 0.0 0.0 0.00 0.00 0.00 49 1010.6
20260502185521 75 0.0 0.0 0.00 0.00 0.00 49 1010.5
20260502184517 76 0.0 0.0 0.00 0.00 0.00 48 1010.4
20260502183522 77 0.0 0.0 0.00 0.00 0.00 42 1010.1
20260502182517 78 0.0 0.0 0.00 0.00 0.00 42 1010.1
20260502181522 78 0.0 0.0 0.00 0.00 0.00 41 1010.3
20260502180518 79 0.0 0.0 0.00 0.00 0.00 40 1010.2
20260502170520 80 0.0 0.0 0.00 0.00 0.00 39 1010.5
20260502163522 81 0.0 0.0 0.00 0.00 0.00 38 1011.1
20260502162515 81 0.0 0.0 0.00 0.00 0.00 38 1011.2
20260502161521 82 0.0 0.0 0.00 0.00 0.00 38 1011.4
20260502160525 82 0.0 0.0 0.00 0.00 0.00 38 1011.3
20260502151526 82 0.0 0.0 0.00 0.00 0.00 40 1012.1
20260502150521 82 0.0 0.0 0.00 0.00 0.00 40 1012.2
20260502130524 79 0.0 0.0 0.00 0.00 0.00 45 1013.3
20260502123526 79 0.0 0.0 0.00 0.00 0.00 45 1013.9
20260502122520 78 0.0 0.0 0.00 0.00 0.00 45 1013.7
20260502121515 79 0.0 0.0 0.00 0.00 0.00 44 1013.1
20260502120521 79 0.0 0.0 0.00 0.00 0.00 44 1013.2
20260502115517 79 0.0 0.0 0.00 0.00 0.00 45 1013.6
20260502114522 78 0.0 0.0 0.00 0.00 0.00 45 1013.7
20260502113525 78 0.0 0.0 0.00 0.00 0.00 46 1013.8
20260502112520 78 0.0 0.0 0.00 0.00 0.00 46 1013.8
20260502111523 78 0.0 0.0 0.00 0.00 0.00 46 1013.8
20260502110519 79 0.0 0.0 0.00 0.00 0.00 46 1013.9
20260502105524 77 0.0 0.0 0.00 0.00 0.00 47 1014.3
20260502104520 76 0.0 0.0 0.00 0.00 0.00 47 1014.3
20260502103524 76 0.0 0.0 0.00 0.00 0.00 48 1014.3
20260502102519 75 0.0 0.0 0.00 0.00 0.00 48 1014.3
20260502101524 74 0.0 0.0 0.00 0.00 0.00 48 1014.2
20260502100518 73 0.0 0.0 0.00 0.00 0.00 49 1014.1
20260502091521 69 0.0 0.0 0.00 0.00 0.00 49 1014.4
20260502090516 68 0.0 0.0 0.00 0.00 0.00 49 1014.3
20260502071526 61 0.0 0.0 0.00 0.00 0.00 45 1013.9
20260502070521 60 0.0 0.0 0.00 0.00 0.00 43 1014.0
20260502065524 59 0.0 0.0 0.00 0.00 0.00 43 1014.5
20260502064521 58 0.0 0.0 0.00 0.00 0.00 45 1014.4
20260502063516 58 0.0 0.0 0.00 0.00 0.00 45 1014.0
20260502062521 57 0.0 0.0 0.00 0.00 0.00 45 1014.0
20260502061516 56 0.0 0.0 0.00 0.00 0.00 46 1014.0
20260502060522 56 0.0 0.0 0.00 0.00 0.00 47 1013.9
20260502055517 56 0.0 0.0 0.00 0.00 0.00 48 1013.8
20260502054524 56 0.0 0.0 0.00 0.00 0.00 48 1013.7
20260502053519 55 0.0 0.0 0.00 0.00 0.00 47 1013.4
20260502052523 55 0.0 0.0 0.00 0.00 0.00 46 1013.5
20260502051519 54 0.0 0.0 0.00 0.00 0.00 42 1013.9
20260502050522 54 0.0 0.0 0.00 0.00 0.00 35 1013.9
20260502045517 53 0.0 0.0 0.00 0.00 0.00 27 1013.8
20260502044522 52 0.0 0.0 0.00 0.00 0.00 23 1013.7
20260502043518 51 0.0 0.0 0.00 0.00 0.00 17 1013.6
20260502042524 51 0.0 0.0 0.00 0.00 0.00 11 1013.6
20260502041519 50 0.0 0.0 0.00 0.00 0.00 11 1013.8
20260502040524 50 0.0 0.0 0.00 0.00 0.00 12 1013.9
20260502035515 50 0.0 0.0 0.00 0.00 0.00 11 1014.2
20260502034520 50 0.0 0.0 0.00 0.00 0.00 12 1014.2
20260502033515 51 0.0 0.0 0.00 0.00 0.00 17 1014.3
20260502032521 51 0.0 0.0 0.00 0.00 0.00 21 1014.3
20260502031517 51 0.0 0.0 0.00 0.00 0.00 23 1014.3
20260502030521 51 0.0 0.0 0.00 0.00 0.00 26 1014.3
20260502025515 51 0.0 0.0 0.00 0.00 0.00 29 1014.3
20260502024520 51 0.0 0.0 0.00 0.00 0.00 31 1014.4
20260502023515 51 0.0 0.0 0.00 0.00 0.00 33 1014.8
20260502022520 52 0.0 0.0 0.00 0.00 0.00 35 1014.8
20260502021515 52 0.0 0.0 0.00 0.00 0.00 36 1014.8
20260502020520 52 0.0 0.0 0.00 0.00 0.00 38 1014.8
20260502015523 52 0.0 0.0 0.00 0.00 0.00 39 1015.0
20260502014519 53 0.0 0.0 0.00 0.00 0.00 41 1015.0
20260502013524 53 0.0 0.0 0.00 0.00 0.00 42 1015.1
20260502012519 53 0.0 0.0 0.00 0.00 0.00 43 1015.2
20260502011524 53 0.0 0.0 0.00 0.00 0.00 44 1015.3
20260502010518 53 0.0 0.0 0.00 0.00 0.00 45 1015.3
20260502005521 54 0.0 0.0 0.00 0.00 0.00 47 1015.4
20260502004517 54 0.0 0.0 0.00 0.00 0.00 48 1015.5
20260502003523 54 0.0 0.0 0.00 0.00 0.00 49 1015.7
20260502002517 55 0.0 0.0 0.00 0.00 0.00 50 1015.7
20260502001520 55 0.0 0.0 0.00 0.00 0.00 51 1015.9
20260502000524 55 0.0 0.0 0.00 0.00 0.00 51 1015.9
20260501235519 56 0.0 0.0 0.00 0.00 0.00 51 1016.1
20260501234522 56 0.0 0.0 0.00 0.00 0.00 51 1016.2
20260501233516 56 0.0 0.0 0.00 0.00 0.00 51 1016.4
20260501232522 57 0.0 0.0 0.00 0.00 0.00 52 1016.4
20260501231517 57 0.0 0.0 0.00 0.00 0.00 52 1016.4
20260501230524 57 0.0 0.0 0.00 0.00 0.00 52 1016.4
20260501225517 58 0.0 0.0 0.00 0.00 0.00 51 1016.4
20260501224523 58 0.0 0.0 0.00 0.00 0.00 51 1016.4
20260501223518 59 0.0 0.0 0.00 0.00 0.00 51 1016.6
20260501222522 59 0.0 0.0 0.00 0.00 0.00 50 1016.6
20260501221516 60 0.0 0.0 0.00 0.00 0.00 49 1016.3
20260501220521 60 0.0 0.0 0.00 0.00 0.00 49 1016.3
20260501215523 61 0.0 0.0 0.00 0.00 0.00 48 1016.5
20260501214518 61 0.0 0.0 0.00 0.00 0.00 48 1016.5